Location: Buchberg
(46.9333°N, 15.8500°E)
Time: 09:49:43
(UTC+00:00)

Iridium 4 Rocket - Pass Details

Date: 14 July 2020
Orbit: 583 x 906 km, 86.9° (Epoch: 07 August)

Event Time Altitude Azimuth Distance (km) Brightness Sun altitude
Exits shadow 00:24:12 31° 227° (SW) 1,473 4.5 -19.0°
Maximum altitude 00:26:26 45° 278° (W) 1,132 4.2 -18.9°
Drops below altitude 10° 00:31:34 10° 351° (N) 2,366 6.9 -18.5°
Sets 00:33:57 0° 358° (N) 3,248 7.9 -18.4°
